Wind_Speed
73 69 64 60 57 51 48 49 51 51 49 49 48 47 47 47 46 45 44 44 45 45 46 44 44 45 44 43 44 45 45 45 44 50 52 49 55 57 53 51 49 49 47 46 46 45 47 48 46 44 44 43 42 42 41 40 39 37 37 35 34 33 32 31 30 28 27 27 26 25 23 22 21 20 18 17 15 14 14 13 13 12 11 11 11 10 10 10
71 67 63 59 56 50 48 49 51 50 49 48 47 47 46 46 46 44 44 44 44 45 45 43 43 43 43 43 44 44 43 44 46 50 52 50 53 56 55 53 51 50 48 47 47 46 48 49 47 46 44 43 43 42 43 41 39 38 37 35 34 34 32 31 30 28 28 28 27 26 24 23 21 20 18 17 16 15 14 13 13 12 12 11 10 10 10 9
69 66 62 57 55 50 48 50 50 50 48 47 47 46 46 46 45 44 43 44 44 45 45 42 42 41 41 43 42 43 40 40 46 51 53 52 52 54 54 54 53 52 49 48 48 47 49 50 49 48 45 43 43 43 43 41 39 38 36 36 36 34 32 31 30 29 29 28 27 26 24 23 21 20 19 17 16 15 14 13 13 12 11 11 10 10 10 9
67 64 61 57 55 51 49 50 50 49 48 47 46 46 46 45 44 43 43 43 43 44 44 42 42 41 40 40 41 42 41 38 41 48 52 52 53 54 53 53 53 52 50 49 48 49 50 51 50 49 47 45 44 43 43 42 40 39 38 39 37 35 34 32 31 30 29 28 28 26 25 24 22 21 20 18 18 17 15 14 12 11 10 10 10 10 9 9
64 62 60 56 54 51 49 50 50 49 48 46 46 45 46 45 44 43 42 43 43 43 43 42 42 43 41 40 41 42 43 40 37 42 48 50 54 54 51 52 52 51 51 50 50 51 52 53 52 49 48 46 45 45 44 43 42 41 40 39 37 36 35 33 32 31 29 29 28 27 26 25 24 22 21 20 19 17 15 14 13 13 12 11 11 10 10 10
61 60 59 56 54 52 50 50 49 48 48 47 46 45 45 45 44 42 42 43 43 43 42 42 43 44 43 41 39 39 42 41 38 40 45 48 52 53 51 52 52 51 51 51 52 54 54 54 53 50 48 47 47 46 45 43 42 41 40 38 37 37 36 34 33 31 30 29 28 28 27 26 24 22 21 20 18 16 16 15 15 14 13 12 12 12 11 11
60 59 57 55 54 52 49 49 48 47 47 47 46 46 45 44 43 42 42 42 42 42 42 42 43 45 46 44 40 37 38 40 40 41 42 46 49 51 52 51 51 51 51 52 53 55 56 54 53 52 49 48 48 47 45 43 42 42 40 39 39 38 36 35 33 32 31 30 29 28 27 26 25 23 22 20 18 17 16 15 15 14 13 13 12 12 12 11
58 58 56 54 54 51 49 49 48 47 47 47 47 46 45 44 42 41 41 42 41 41 41 42 42 45 47 47 44 39 38 40 42 42 42 43 45 48 51 51 50 51 50 52 55 56 57 56 54 52 50 49 48 47 46 44 44 42 40 39 40 39 38 36 34 33 32 30 30 28 27 26 25 23 22 20 19 18 17 16 15 14 14 13 12 12 12 11
57 57 55 54 54 50 48 48 48 48 48 48 47 46 45 43 42 41 41 41 41 40 41 41 41 44 46 47 47 44 43 43 42 42 42 43 43 46 50 50 49 49 49 52 56 57 58 56 53 52 50 49 48 47 46 45 44 42 40 40 40 40 39 37 35 34 32 32 31 29 28 27 25 24 22 21 20 19 18 18 17 16 15 14 13 13 12 11
57 56 55 54 54 50 49 49 49 49 48 48 47 46 45 43 41 40 41 41 40 40 40 40 40 43 45 47 46 44 47 49 44 43 43 42 44 45 48 49 48 48 48 51 56 57 58 56 53 52 49 48 48 47 47 46 45 42 41 42 41 41 39 37 36 35 34 33 31 30 29 27 26 24 23 22 21 20 20 19 18 17 16 15 14 13 12 12
57 56 55 54 53 51 50 50 49 49 49 48 47 46 44 43 42 40 41 40 39 39 40 40 39 42 44 46 45 43 48 51 48 46 44 42 43 45 47 48 48 48 47 50 56 58 58 55 53 52 50 49 49 48 48 47 45 43 42 43 43 42 40 38 37 36 35 33 32 31 29 28 26 24 24 23 22 21 21 19 18 17 16 15 14 14 13 12
57 56 55 54 53 51 51 51 51 51 50 49 47 46 44 43 42 40 40 40 39 39 40 39 39 41 44 45 45 45 48 50 49 48 46 44 43 44 46 47 48 49 48 50 57 59 59 56 54 53 52 51 51 50 50 48 46 44 44 45 45 43 42 40 38 37 36 34 33 31 30 28 26 25 25 24 23 22 21 20 19 17 17 16 15 14 13 13
57 56 55 54 52 52 52 53 53 52 51 49 48 46 44 43 41 40 40 39 39 38 39 39 40 41 43 44 44 46 49 49 50 49 49 47 44 44 45 46 48 50 49 51 57 60 60 57 54 53 52 51 52 52 51 50 47 46 46 46 46 45 43 41 39 38 36 35 33 32 30 28 27 26 26 25 24 23 22 21 20 18 18 17 16 15 14 13
58 56 55 54 53 53 54 55 54 53 51 50 48 46 44 43 41 40 40 39 39 38 39 39 40 41 41 42 42 46 48 48 49 50 50 48 45 43 43 45 47 49 51 53 57 60 62 59 56 54 53 52 52 53 51 50 49 47 48 48 47 47 45 42 40 38 37 35 34 33 31 30 29 27 26 26 24 23 23 22 21 20 19 19 17 16 14 14
58 56 55 55 55 56 56 56 55 54 52 50 48 46 45 43 42 41 40 40 39 39 39 39 39 39 39 40 42 46 46 45 47 49 49 48 46 43 42 44 46 48 52 55 58 61 62 59 57 56 54 53 53 54 53 51 50 49 49 49 49 48 44 41 40 39 37 36 35 33 32 31 28 26 26 26 25 24 24 23 22 21 20 20 18 17 15 15
58 56 57 57 57 58 57 57 56 54 52 50 49 47 46 44 43 42 41 41 40 39 40 39 39 38 38 38 41 45 44 43 45 47 47 46 46 44 42 44 47 48 53 57 59 61 62 59 57 57 55 54 55 55 54 53 52 50 49 50 49 46 43 41 40 39 37 36 35 34 32 30 28 27 27 26 25 24 24 24 23 22 22 21 19 18 17 16
58 58 59 59 58 58 57 57 56 54 52 50 49 48 47 46 44 44 43 41 41 40 40 39 38 38 38 38 40 43 41 40 42 44 45 44 44 43 42 43 47 51 55 58 61 62 62 60 58 57 56 56 56 56 55 55 54 52 52 52 49 46 44 41 39 38 37 36 35 34 32 30 29 28 27 26 26 25 24 24 23 22 22 21 21 19 18 18
59 60 60 59 58 58 57 57 55 53 51 49 49 48 47 47 46 45 43 43 42 42 41 41 40 38 38 38 39 41 38 38 41 42 43 43 42 43 42 43 48 53 57 60 62 63 62 60 58 58 58 57 58 58 56 55 55 54 54 52 48 45 43 40 39 38 37 36 35 34 32 30 30 29 27 27 27 26 25 24 23 23 22 22 22 21 20 19
61 61 60 59 59 58 57 56 53 51 50 50 49 49 48 48 47 46 44 43 42 42 41 39 38 37 36 37 38 40 38 39 40 41 42 42 42 43 43 45 49 56 60 62 63 64 62 60 60 61 60 58 58 57 56 56 55 53 50 46 44 43 41 39 38 37 37 36 35 34 31 30 31 30 28 28 27 26 25 24 24 23 23 23 23 23 22 21
62 61 60 60 59 58 56 54 52 50 49 49 49 49 49 48 47 46 43 42 40 39 37 35 35 36 36 36 38 39 38 38 39 40 41 41 42 43 44 47 52 59 62 63 65 65 63 61 62 62 60 58 58 57 58 57 54 50 47 45 44 43 41 41 39 39 39 38 36 34 33 32 31 29 29 29 28 26 25 24 24 24 24 24 24 24 23 22
62 61 60 59 58 57 55 53 51 50 48 46 46 46 45 44 44 42 40 40 39 37 36 36 36 36 35 34 35 36 35 36 37 38 40 41 42 44 46 49 55 60 63 65 67 66 65 64 62 60 60 59 58 58 57 55 52 48 48 47 46 45 46 44 43 42 41 40 38 36 34 32 30 30 30 29 27 26 26 26 25 25 25 25 24 24 24 23
63 62 61 59 58 56 54 53 51 49 47 46 45 44 43 42 40 37 37 38 38 38 38 39 39 38 36 35 35 35 34 34 36 37 39 41 43 45 48 51 55 60 64 67 68 68 67 65 62 61 60 59 57 55 55 53 51 49 49 49 48 48 48 46 45 44 42 40 38 35 34 32 31 31 31 29 26 26 27 27 26 26 25 25 25 25 25 24
63 62 61 59 57 56 54 52 50 48 46 45 44 43 42 41 39 37 37 37 37 40 41 41 41 39 38 37 38 37 35 34 35 36 38 40 43 46 49 52 57 61 66 68 70 70 69 66 64 62 60 57 55 54 54 53 52 52 51 50 50 49 47 46 45 44 41 40 37 35 34 33 32 33 31 29 27 26 27 27 26 26 26 26 26 26 26 26
64 62 61 59 57 55 54 51 50 48 46 45 44 43 42 41 40 40 40 39 38 40 41 40 39 38 37 38 38 37 35 34 35 36 37 40 44 48 52 55 59 62 66 68 68 69 69 67 65 61 58 56 55 55 55 54 53 53 52 51 51 49 46 46 45 43 41 41 39 36 36 34 34 33 31 29 28 27 27 27 27 27 27 27 27 26 27 27
64 63 61 59 57 55 53 52 50 48 46 45 44 43 43 42 41 41 41 41 42 42 42 42 40 38 37 37 38 36 34 35 36 37 39 42 46 50 53 57 60 62 64 65 64 65 67 65 61 57 56 55 55 55 55 54 54 54 52 52 52 49 47 47 45 44 44 43 40 38 37 36 34 33 31 30 29 28 29 28 27 28 28 28 27 26 26 27
64 63 61 59 57 55 54 52 50 49 47 46 45 44 44 43 43 42 42 42 44 45 45 44 43 42 40 39 39 36 36 37 38 40 42 45 48 51 55 58 59 61 61 61 61 64 65 61 57 55 55 55 54 54 54 53 53 53 52 52 52 50 49 49 46 45 45 44 41 39 38 37 35 33 32 31 30 29 29 29 28 28 27 27 27 27 27 27
64 63 61 59 57 55 54 52 50 49 48 46 46 45 45 44 43 43 44 46 47 46 46 45 45 44 43 42 40 38 38 39 40 42 44 46 50 53 56 58 60 60 59 58 60 63 61 57 56 56 56 56 55 55 54 53 53 54 53 52 51 50 49 49 48 47 46 45 42 39 39 38 36 34 31 30 30 30 29 28 28 27 26 26 26 27 27 28
64 63 62 59 57 55 52 50 49 48 47 46 46 46 45 44 44 44 46 49 50 48 46 46 45 44 44 43 42 39 38 38 42 45 46 48 51 54 56 58 60 58 55 55 59 61 58 54 55 55 55 56 55 55 53 52 54 54 52 51 51 50 49 49 49 49 47 46 44 42 40 40 37 33 30 30 31 30 28 27 27 27 26 26 26 26 27 28
64 64 62 60 58 56 52 49 47 45 45 45 45 46 45 44 44 44 47 50 50 48 47 47 46 46 45 44 43 40 38 40 43 45 47 50 53 56 57 58 59 56 52 53 55 56 54 52 52 52 53 54 54 53 51 51 52 52 51 50 50 50 50 50 50 49 48 47 46 44 41 40 38 34 31 31 31 29 28 27 26 26 25 25 26 26 27 28
65 65 63 62 59 56 53 50 48 46 44 43 43 44 44 44 45 47 50 51 50 48 48 47 47 47 46 45 43 40 40 42 44 46 49 52 54 56 58 57 56 54 52 53 54 53 50 50 50 51 52 53 52 51 49 50 52 51 51 50 50 51 51 51 51 50 49 49 48 45 42 41 39 36 32 31 30 29 29 28 26 25 24 24 25 26 27 29
67 66 65 63 60 57 54 53 52 50 46 44 43 44 45 45 47 49 51 51 49 49 49 48 47 46 44 44 43 41 42 43 46 49 51 53 55 57 59 58 57 56 55 55 55 53 50 50 51 52 52 52 52 51 50 51 52 52 52 51 51 52 52 52 52 52 52 52 50 47 44 42 41 38 33 31 30 30 29 28 27 25 25 25 25 26 27 28
68 67 66 64 61 57 55 54 53 52 49 47 46 46 46 47 49 50 50 49 49 49 48 46 46 44 43 43 42 41 42 45 48 50 52 54 56 58 60 60 60 60 61 60 59 56 53 52 54 54 54 53 52 52 52 53 54 54 53 53 52 53 54 55 55 55 55 54 51 48 44 44 42 37 33 32 30 30 30 28 27 26 26 26 26 27 27 28
69 68 66 65 62 58 56 56 54 53 51 50 48 47 47 49 51 50 49 49 49 48 46 44 44 43 44 45 44 42 43 47 49 51 53 55 56 57 58 59 58 59 62 62 59 57 56 56 56 56 55 54 54 54 54 55 55 55 55 54 54 55 55 56 56 56 55 54 51 47 44 44 41 37 35 34 32 31 30 29 28 28 28 28 28 28 28 29
71 70 67 65 62 60 58 57 56 55 53 52 51 49 49 51 50 49 50 49 48 47 46 45 44 44 45 46 44 42 44 48 51 52 54 56 57 57 57 58 56 56 59 58 56 55 56 57 57 57 56 55 54 54 54 53 53 53 53 53 53 54 54 53 54 54 53 52 49 47 45 44 42 39 36 35 34 33 31 30 30 29 29 29 30 30 30 30
72 71 69 66 64 62 60 59 57 56 55 54 53 52 53 54 52 50 51 49 47 47 46 45 45 45 47 47 44 42 44 50 52 53 55 56 57 58 58 58 56 56 58 57 56 55 55 55 55 54 54 54 53 53 52 52 52 52 52 52 52 53 52 52 52 52 51 50 50 48 46 44 42 41 39 36 35 35 34 33 31 30 30 30 30 31 31 31
72 72 69 67 65 63 62 61 59 58 57 56 57 57 55 55 53 52 52 49 47 47 45 46 47 47 47 47 44 43 44 49 52 54 55 56 57 57 56 56 55 55 56 56 56 56 55 56 54 52 51 51 51 51 51 51 52 53 52 52 52 51 51 50 51 51 49 49 50 49 46 44 42 42 41 38 36 36 36 35 33 31 30 30 30 31 31 32
70 72 71 68 67 65 64 62 60 60 60 59 60 59 56 55 54 53 51 48 47 46 45 46 47 48 49 48 46 44 45 49 53 55 56 56 57 57 56 55 55 53 53 53 53 53 54 55 54 51 50 50 50 50 50 50 51 52 52 52 50 49 49 48 48 50 49 49 51 49 46 44 43 43 42 38 37 37 37 37 36 34 32 31 31 32 33 33
67 71 72 70 68 67 66 64 62 61 61 61 62 60 57 57 56 54 51 47 46 45 44 45 44 45 46 47 47 45 45 50 54 56 57 57 57 57 56 56 54 53 52 51 50 50 51 52 52 51 49 48 49 49 50 51 51 51 50 49 48 48 48 48 48 49 49 49 50 49 46 44 43 42 41 39 38 39 38 37 36 35 34 34 33 34 34 35
67 70 72 71 69 68 67 66 64 62 62 64 63 62 60 60 57 54 52 49 46 45 44 44 43 42 42 44 45 44 44 49 53 56 57 58 57 57 57 56 54 53 52 51 50 50 49 50 51 52 50 49 49 50 50 50 50 50 50 49 48 48 48 49 49 49 49 48 48 47 46 45 43 41 40 40 40 39 38 37 37 36 36 35 35 35 35 36
68 69 71 71 70 69 68 67 66 66 66 66 64 63 63 61 59 57 54 51 49 47 46 44 42 42 41 42 43 43 42 46 51 55 56 57 57 56 56 56 54 53 52 51 51 50 49 49 50 51 51 51 51 51 50 50 50 49 49 49 49 49 49 49 49 48 48 47 48 48 47 46 44 41 41 41 40 39 39 39 39 38 37 36 36 36 36 37
68 70 71 72 71 69 68 69 69 69 69 66 65 65 64 63 62 60 56 54 51 49 47 45 43 42 42 41 42 42 42 44 48 53 55 56 56 55 55 55 54 53 52 52 52 52 51 50 50 50 50 50 51 50 49 49 49 48 48 48 47 47 47 48 47 47 46 46 48 49 49 49 46 42 41 41 40 40 40 40 40 39 38 37 37 38 38 38
68 71 72 72 72 70 69 69 69 70 70 69 67 66 65 65 64 61 58 56 54 52 49 47 45 43 42 41 41 41 43 43 46 51 54 54 55 54 53 53 53 51 51 51 51 51 51 50 51 51 50 49 49 49 48 48 47 47 47 47 45 45 44 44 45 45 45 46 48 48 49 50 47 43 41 40 40 40 40 40 40 39 38 38 38 38 39 39
68 69 71 72 72 71 70 70 70 70 70 70 68 66 66 66 65 63 60 58 56 55 52 50 48 47 45 43 42 42 43 44 44 47 52 54 54 53 52 52 51 49 49 49 49 49 49 49 50 50 50 49 48 47 47 47 46 46 47 46 45 45 45 45 46 46 46 47 47 47 50 50 46 42 41 41 41 41 40 40 40 39 39 38 38 39 39 40
68 68 71 73 73 72 72 71 69 68 67 67 67 67 68 66 66 65 62 59 58 56 54 53 51 49 47 46 44 43 44 46 46 46 50 54 55 54 53 53 52 51 50 50 49 48 48 50 51 51 51 51 51 50 49 49 49 48 47 47 47 47 47 48 48 48 49 48 47 48 51 48 44 41 41 43 43 42 41 41 40 40 40 39 39 39 40 40
68 70 73 74 74 74 73 71 70 68 66 67 67 68 68 67 67 66 64 61 59 57 55 54 53 51 49 47 46 45 46 47 48 48 50 53 56 56 55 55 55 53 52 51 49 48 48 50 51 52 53 55 55 55 53 51 50 50 50 49 49 49 48 47 47 47 48 47 47 48 48 45 43 42 43 44 44 43 43 42 42 42 41 41 41 42 41 41
65 69 72 75 75 74 72 71 72 71 69 69 68 68 68 68 67 66 65 63 60 58 57 56 55 53 52 50 48 47 47 48 49 50 50 52 55 57 57 57 57 57 55 54 52 50 50 51 51 52 53 54 54 53 51 48 48 49 49 47 47 47 46 45 46 47 47 46 47 48 45 44 44 44 45 46 45 43 43 43 44 44 44 44 45 45 44 42
63 64 66 69 71 72 72 71 71 70 68 68 69 68 68 68 68 68 67 65 63 61 60 58 57 56 54 53 51 50 49 49 50 51 51 52 54 56 58 58 59 60 59 57 56 55 54 55 55 54 53 54 53 52 50 49 48 47 47 46 45 45 45 45 46 47 45 46 49 48 43 44 47 46 46 46 45 44 44 45 46 47 47 47 47 46 45 43
60 60 60 61 61 62 63 64 64 64 65 67 69 70 69 70 68 67 67 65 64 63 62 61 59 57 55 54 53 52 52 51 52 52 53 53 53 55 57 59 60 61 62 62 61 59 59 59 58 56 55 55 55 54 53 52 51 50 49 49 47 46 46 47 47 46 45 49 51 48 45 46 49 48 47 46 46 46 47 47 48 48 48 47 47 46 46 46
56 57 57 57 55 53 53 55 59 63 64 67 70 71 71 70 67 65 64 63 63 62 61 60 58 56 56 56 55 55 55 54 53 53 53 53 53 54 56 58 60 60 62 65 65 64 62 62 60 58 57 57 56 56 56 55 55 54 54 53 52 50 50 50 51 50 50 53 54 52 51 52 51 50 49 48 48 48 48 49 48 47 47 47 48 48 49 50
57 56 55 54 52 51 52 56 61 63 63 66 68 68 69 68 65 63 62 61 60 59 59 58 56 54 55 56 56 56 55 54 53 52 52 53 53 53 54 56 58 59 60 63 66 68 66 65 64 62 61 60 59 58 58 58 58 57 56 56 55 54 54 54 55 55 55 57 56 55 56 55 51 49 49 48 47 47 48 49 48 48 48 49 51 52 53 53
54 54 55 53 52 52 53 56 59 61 62 63 62 61 63 64 61 59 59 59 59 58 56 56 55 55 56 56 56 56 54 53 53 53 53 53 52 50 49 51 53 55 57 59 63 68 70 69 67 64 64 64 63 61 61 61 60 60 60 59 58 58 58 58 58 57 57 57 55 54 55 54 50 47 47 46 46 47 48 49 50 50 51 52 54 55 55 55
49 49 51 52 52 53 54 56 58 60 60 58 56 56 57 58 57 58 59 59 58 58 57 56 56 56 57 57 56 55 54 54 54 55 55 55 53 50 49 49 49 50 52 54 56 60 66 70 70 69 68 67 66 65 64 63 64 65 64 61 60 60 59 59 59 57 56 55 54 54 54 52 50 48 47 47 47 48 50 51 52 53 54 56 57 58 57 56
Wind_Direction
215 216 216 216 215 212 210 211 214 215 213 212 212 212 212 214 216 216 214 214 215 217 219 218 217 217 216 218 220 224 227 227 226 218 212 210 209 208 208 209 207 204 203 204 208 203 194 192 194 194 194 192 191 191 191 191 192 191 191 191 192 191 190 190 190 188 186 187 189 191 190 188 187 185 183 181 180 181 179 176 172 169 169 166 161 159 158 157
214 215 215 214 213 210 208 210 213 214 212 211 212 212 212 214 217 217 215 215 215 217 219 218 216 214 213 216 219 223 226 227 227 219 212 210 209 209 210 210 208 205 203 205 207 203 195 192 194 195 195 194 192 192 192 192 192 192 192 193 194 194 193 193 191 188 189 190 192 194 195 195 195 193 191 190 189 191 192 188 186 182 179 177 172 169 166 165
212 213 213 212 211 209 207 210 212 213 212 210 212 212 212 214 217 217 216 216 215 217 219 218 214 211 212 217 220 222 224 227 225 218 213 210 208 208 208 208 207 205 204 207 207 203 196 193 194 195 195 194 194 194 193 193 193 192 192 194 196 195 194 194 191 190 192 192 194 196 198 199 200 199 197 196 197 199 200 199 199 195 189 187 184 181 176 174
211 211 211 210 210 208 206 209 212 212 211 210 212 212 213 215 217 217 216 217 216 217 220 217 213 210 211 215 219 221 224 228 223 218 214 211 208 208 207 207 207 205 204 207 207 203 197 193 195 196 194 194 194 195 194 193 193 192 193 196 196 195 196 195 192 192 192 193 195 197 199 201 202 202 201 200 202 203 204 205 207 206 201 198 196 194 189 184
209 209 210 209 209 207 206 208 211 211 209 208 211 212 213 215 216 217 217 217 217 217 220 217 213 211 210 212 216 219 223 226 223 220 216 212 210 208 208 209 208 205 205 208 208 203 198 194 194 196 196 194 194 195 194 194 193 192 196 197 195 196 197 196 195 193 193 194 195 196 199 201 202 204 205 205 205 205 207 207 208 210 208 205 204 205 202 196
207 207 208 208 208 207 205 208 209 210 208 207 210 212 213 215 216 217 217 218 217 217 219 217 213 211 210 211 213 216 220 223 221 220 218 215 212 209 210 212 210 208 207 210 210 204 198 195 195 196 197 195 194 195 195 195 194 195 197 196 196 197 197 196 196 194 194 196 196 197 199 200 202 203 206 208 207 206 208 209 211 215 215 213 210 210 210 207
204 206 206 206 206 206 205 206 208 208 208 207 209 211 212 215 216 216 217 218 217 217 219 218 214 211 211 211 213 215 218 222 221 219 217 217 215 212 212 213 211 210 210 212 212 206 198 195 197 197 196 196 195 195 194 195 195 197 197 195 197 198 197 197 196 195 196 197 198 198 199 200 201 202 204 206 206 207 208 211 214 218 221 222 220 219 218 215
202 203 203 204 205 204 203 204 206 206 206 206 208 210 212 214 215 215 216 217 218 217 219 219 216 213 212 212 213 214 216 218 220 219 217 218 217 216 215 214 212 211 213 215 213 206 198 196 198 198 196 195 196 195 194 195 196 198 197 197 198 198 198 198 196 196 197 198 199 199 199 201 201 201 203 204 206 207 208 211 213 215 219 223 225 226 226 222
200 201 201 202 204 202 200 202 204 204 205 206 207 209 211 213 214 214 215 217 218 217 219 219 217 215 213 213 213 215 218 218 219 219 218 218 217 217 216 214 213 211 214 217 215 207 198 196 198 198 197 195 195 195 195 196 197 197 197 199 199 199 199 198 197 197 198 199 200 200 200 201 202 202 202 204 206 206 208 210 211 213 215 219 222 225 229 229
197 198 199 200 202 200 198 200 201 202 203 205 207 209 210 212 213 213 214 216 217 216 218 219 218 217 214 213 213 216 221 221 221 221 219 217 216 217 216 215 213 211 213 217 217 209 198 195 197 198 197 195 195 195 195 196 196 196 197 200 200 200 200 198 198 198 199 201 202 202 201 201 203 202 202 205 206 207 210 211 212 213 215 218 221 223 226 229
195 196 197 198 199 197 195 197 199 201 202 204 206 208 209 211 212 212 213 215 216 216 218 217 217 218 215 213 212 215 220 221 222 223 222 219 216 215 215 214 212 211 212 216 217 208 196 194 197 198 196 194 195 196 196 197 196 196 197 200 201 201 201 199 199 199 200 202 203 204 203 202 203 202 204 207 207 209 212 213 215 216 217 219 221 223 225 228
193 194 194 196 197 195 193 195 198 200 202 203 205 207 208 210 211 210 211 213 214 215 217 217 215 216 216 215 214 217 221 222 222 223 224 222 218 215 214 213 213 212 211 215 215 204 193 193 197 198 196 193 195 196 197 197 195 196 198 199 201 202 202 200 199 200 201 203 204 205 205 204 203 203 206 209 209 211 214 215 217 217 219 221 221 223 225 228
192 192 193 194 194 192 192 195 197 199 201 202 204 206 207 209 208 208 209 211 213 214 216 216 215 215 216 215 215 219 221 223 224 224 224 223 220 217 214 212 212 213 212 214 214 202 192 193 196 198 197 194 195 196 197 197 195 196 199 200 201 202 202 200 200 201 202 203 204 206 206 205 204 204 208 211 211 213 215 217 219 219 221 223 222 224 224 228
191 191 191 192 192 191 192 195 197 199 200 201 203 204 206 206 206 205 206 209 211 213 215 216 216 215 215 215 216 220 221 222 224 226 227 225 222 219 215 213 212 212 212 212 209 199 191 192 195 197 197 196 196 197 197 197 196 197 199 200 202 203 202 200 200 201 202 203 205 206 206 207 206 204 208 213 213 214 217 219 220 220 223 226 225 225 225 229
190 190 190 190 191 191 193 195 197 199 200 201 202 203 204 204 204 204 205 208 210 212 214 216 216 216 216 215 217 221 221 221 224 227 229 230 227 224 219 215 213 212 212 210 203 194 191 193 195 197 197 196 197 198 198 197 197 199 200 201 203 204 203 200 201 202 203 204 205 207 207 209 208 206 209 214 215 215 218 220 221 222 224 228 229 227 227 230
189 189 189 190 191 192 193 195 197 199 200 201 201 201 203 203 203 203 204 206 208 210 213 215 216 216 217 216 218 222 222 221 224 227 230 231 230 230 226 220 216 213 212 208 198 191 191 193 195 197 196 197 198 199 199 198 198 199 201 204 205 205 203 202 202 203 203 204 206 207 207 209 208 207 210 214 216 217 219 222 223 224 225 228 230 231 230 232
188 188 189 190 191 192 194 195 197 199 200 201 200 201 201 202 201 201 203 205 207 209 212 213 214 215 217 217 220 223 222 222 224 226 228 230 229 230 230 225 220 215 211 205 195 190 191 193 196 197 197 197 199 199 199 199 199 199 201 204 204 204 204 203 204 205 205 205 206 207 207 208 209 209 210 213 217 217 219 222 224 226 227 227 230 232 233 235
188 188 189 190 192 193 195 196 198 199 200 201 200 200 200 201 200 201 203 204 206 208 210 212 213 217 218 218 222 225 223 223 223 224 226 227 227 228 228 227 221 216 211 203 194 190 191 194 196 198 198 198 199 200 200 201 201 201 203 204 202 204 204 203 205 206 207 207 208 208 207 208 211 212 211 213 216 217 217 220 223 227 228 228 230 232 234 236
188 189 190 191 192 194 195 197 199 200 201 201 200 200 200 201 200 201 203 205 208 212 215 218 220 222 223 221 222 225 223 223 223 223 223 224 224 225 225 225 221 215 208 201 195 192 192 195 197 198 198 199 199 200 200 202 203 203 205 205 203 205 205 205 207 208 209 210 210 209 208 210 213 214 213 213 216 219 218 218 221 226 228 229 231 233 234 235
189 189 191 192 194 195 196 197 199 200 202 202 202 203 203 204 204 205 206 208 212 217 220 223 224 223 221 220 222 224 222 222 223 222 222 221 221 222 222 222 220 214 207 199 194 192 193 197 198 198 198 199 200 201 201 203 203 202 204 204 203 204 205 205 207 209 211 211 210 210 209 211 215 216 215 215 216 221 223 222 222 224 227 230 232 234 235 236
189 190 191 193 195 197 197 197 198 200 202 203 204 205 207 209 212 214 215 215 215 217 219 219 220 220 218 218 223 227 225 224 225 223 221 220 219 219 219 220 218 213 207 200 194 192 194 197 198 198 199 200 202 203 203 204 204 203 204 204 203 203 204 203 205 208 210 211 210 210 210 212 216 219 219 218 216 220 226 227 226 225 227 230 233 236 237 237
189 191 192 194 196 197 198 198 198 200 201 202 203 204 206 208 212 216 220 222 219 217 217 214 214 217 217 218 223 226 225 225 227 225 222 220 219 219 218 218 216 210 205 200 194 192 194 196 197 199 201 202 203 204 205 205 205 204 205 205 204 204 205 204 206 209 210 211 210 210 212 212 216 221 222 221 219 221 226 229 231 231 229 230 232 236 239 239
190 191 193 195 197 198 198 198 198 200 200 201 202 203 204 206 206 209 214 220 221 218 214 210 209 212 214 216 221 224 223 224 227 226 225 222 219 218 216 214 211 207 202 197 193 193 194 196 198 200 201 203 205 206 207 206 206 205 204 206 206 206 207 206 208 210 211 213 211 211 213 213 216 221 223 225 223 223 228 230 234 237 235 233 233 235 239 241
190 192 194 196 197 198 198 199 199 199 200 200 202 203 203 204 205 206 208 211 215 218 215 210 209 212 214 216 220 223 223 224 226 225 224 222 218 217 213 207 204 203 199 195 194 195 195 196 198 200 202 204 206 206 207 207 206 205 205 206 207 207 208 209 210 211 213 214 212 213 215 214 217 222 223 226 225 226 229 231 232 237 239 239 238 237 239 242
191 192 195 197 197 198 198 199 199 199 199 199 200 201 202 204 204 205 207 207 209 212 214 212 212 214 216 218 221 223 224 225 224 222 220 218 216 214 210 204 200 198 196 195 196 197 198 198 199 201 203 205 207 207 208 208 207 206 206 207 207 207 209 211 211 213 216 216 214 215 218 216 217 222 223 224 225 225 229 231 232 234 237 241 243 242 241 243
192 193 195 197 197 198 198 199 198 198 199 199 199 201 202 204 204 204 205 208 209 209 210 212 214 215 217 219 222 223 224 224 221 218 216 214 212 211 207 203 198 195 195 196 198 199 199 200 201 203 205 207 209 209 209 210 209 208 207 208 208 209 211 213 213 215 218 218 217 218 220 219 218 222 224 224 225 226 228 231 233 235 237 239 243 245 245 245
192 193 196 197 198 198 199 198 198 199 199 199 200 201 202 203 204 204 204 207 209 207 208 211 213 215 217 220 224 225 224 223 219 217 215 213 211 209 206 202 198 195 195 197 200 201 200 201 203 205 206 207 209 210 210 211 211 210 209 210 211 211 213 214 215 218 219 220 220 219 222 223 220 220 224 226 228 228 228 230 234 237 239 240 242 244 246 247
193 194 196 198 198 198 198 198 198 199 199 199 200 201 202 203 203 204 206 208 209 207 208 211 213 215 217 219 223 225 225 223 220 218 215 212 210 208 206 203 198 195 196 199 201 201 201 204 206 206 208 209 209 210 211 213 213 211 211 212 214 214 215 216 217 219 220 222 222 220 223 225 222 219 223 228 230 230 231 232 234 237 239 243 245 247 248 249
193 194 197 198 199 198 197 197 197 197 198 198 200 200 200 202 202 203 207 210 209 208 208 210 213 215 217 220 223 224 224 222 221 219 215 211 209 207 205 201 197 194 197 201 203 203 204 206 208 209 210 210 211 212 213 215 215 213 214 215 216 217 217 219 220 221 222 224 223 221 223 227 225 220 222 228 231 232 233 233 235 239 241 243 246 249 250 251
194 195 197 199 199 198 197 196 196 196 198 199 200 201 201 202 202 203 207 209 209 209 209 211 214 216 217 219 222 224 224 222 219 216 214 212 209 206 203 200 196 195 197 200 203 204 205 207 209 211 211 211 212 213 214 216 216 215 215 216 218 219 220 221 222 223 225 225 224 222 223 228 228 223 222 228 232 234 235 236 237 240 243 244 246 248 250 252
195 196 198 200 199 198 197 197 197 197 198 200 201 201 202 203 204 206 209 209 210 210 210 212 215 217 218 219 222 224 225 223 217 214 213 211 209 207 204 200 197 197 198 200 202 202 203 207 209 210 211 211 213 214 215 216 216 216 216 217 218 220 221 222 223 224 225 225 224 224 225 228 229 225 223 227 233 236 237 238 240 241 244 246 247 248 248 250
196 197 198 200 200 199 199 200 200 199 199 200 202 204 204 204 206 209 210 210 211 212 211 213 216 218 218 219 223 225 226 224 218 214 212 210 209 208 205 203 201 200 200 200 202 201 202 205 207 208 210 210 212 214 215 216 216 216 217 217 219 221 222 223 223 224 225 225 225 226 227 230 231 228 228 229 232 237 239 239 242 243 245 247 248 249 249 250
197 198 199 200 200 199 200 202 202 202 202 201 203 205 206 208 209 210 211 211 212 213 213 214 216 218 218 218 220 223 223 223 219 215 212 209 208 207 206 204 203 203 203 203 203 202 202 204 206 207 209 210 212 214 215 216 217 218 218 218 220 222 222 223 224 225 227 227 228 228 231 233 232 231 232 232 232 236 240 242 245 247 247 248 248 249 250 251
197 199 200 201 201 201 201 202 203 204 205 205 205 205 206 209 211 211 213 213 213 214 213 213 214 216 218 219 221 223 221 219 218 216 213 210 208 207 206 205 205 205 206 206 207 207 205 205 206 207 208 210 212 214 216 217 219 220 222 222 223 224 225 226 228 229 230 231 232 232 233 233 233 233 234 235 234 235 240 243 246 250 251 251 252 252 252 253
198 199 201 202 202 203 203 203 205 205 207 208 209 209 210 210 210 211 214 214 214 214 212 213 215 216 218 219 220 223 222 219 217 215 214 212 211 210 208 207 206 207 208 208 209 211 210 210 209 209 210 212 214 216 216 218 219 220 222 224 225 227 227 229 230 231 232 233 234 234 234 233 234 236 236 237 237 236 240 244 247 250 252 254 256 256 257 258
198 200 202 203 204 205 205 205 207 208 209 210 211 212 213 214 214 214 214 213 215 217 213 213 214 216 219 219 219 221 220 219 218 216 215 214 214 212 210 209 208 209 210 210 210 211 212 213 212 212 213 214 216 218 218 220 221 221 222 223 224 226 228 229 231 232 232 234 234 234 234 234 235 237 238 238 239 239 241 246 249 250 251 253 256 258 259 261
200 201 202 204 205 206 206 207 209 210 211 213 214 215 215 216 216 217 216 215 216 219 218 217 217 217 218 218 219 221 220 218 217 217 216 216 216 214 212 211 210 211 213 213 213 214 213 214 214 215 216 217 218 220 221 222 223 224 225 225 225 227 228 229 231 232 233 235 236 234 234 235 236 238 240 240 241 242 244 248 251 252 253 254 256 259 260 260
201 202 204 205 206 207 207 208 209 211 213 215 216 216 217 218 218 217 217 218 219 221 221 222 222 223 222 220 219 220 221 218 218 218 217 217 218 216 214 213 212 212 213 214 215 216 216 216 216 216 218 220 221 222 223 224 225 226 227 227 228 230 231 231 232 233 233 235 237 236 236 236 237 239 241 242 242 244 246 249 251 253 256 257 259 260 261 261
203 203 205 206 207 209 208 209 209 211 214 216 216 216 217 219 219 218 217 218 220 222 223 223 224 226 227 226 223 223 223 221 219 220 219 218 219 217 215 214 213 213 214 214 214 215 216 218 218 217 219 221 223 224 225 225 226 227 228 228 229 231 232 233 234 235 235 237 239 239 238 238 238 239 241 242 243 245 248 251 253 254 257 259 259 260 261 261
205 206 207 207 208 209 210 210 211 213 216 217 217 217 219 220 220 220 219 220 221 222 223 224 225 226 228 228 227 226 227 226 223 222 221 221 220 218 216 215 214 213 215 215 215 215 215 217 218 218 219 221 222 223 225 226 227 229 230 230 231 233 234 235 235 236 237 238 240 240 239 239 237 237 240 243 245 248 251 253 255 256 257 258 259 259 259 258
206 207 208 208 208 209 211 212 213 216 218 219 219 220 221 221 222 221 219 221 222 223 223 224 225 227 228 229 227 225 227 228 226 224 224 223 222 221 218 216 216 215 215 216 216 216 216 217 218 218 220 221 222 223 224 226 227 228 229 230 232 234 236 237 237 237 239 240 241 240 240 239 237 236 239 244 247 249 251 254 256 258 259 259 259 259 258 258
206 208 208 209 210 210 212 214 216 218 219 220 221 221 221 222 223 222 221 221 222 224 225 225 225 227 228 229 228 226 226 228 227 226 225 225 225 223 219 218 217 217 217 217 217 217 218 219 219 219 220 221 221 222 224 225 225 226 227 227 227 229 231 234 235 235 236 237 239 239 239 238 237 236 239 243 246 250 252 255 258 259 259 259 258 258 258 257
206 209 209 209 210 210 211 214 216 218 220 221 221 221 222 223 224 224 223 222 223 224 225 226 226 227 227 228 228 226 226 228 229 228 227 226 226 224 220 218 218 217 217 218 218 219 220 221 222 222 222 222 222 222 223 224 224 225 225 225 226 228 229 231 232 232 232 233 235 238 238 236 236 237 240 244 247 250 253 255 257 258 258 258 257 257 256 256
207 209 210 209 209 210 212 215 218 220 221 222 222 222 223 224 225 226 225 224 224 224 225 226 227 227 228 228 228 227 226 226 227 228 227 226 225 224 222 219 218 217 218 219 219 220 222 223 223 223 224 223 223 222 222 222 223 223 224 224 226 227 229 231 233 233 234 233 235 239 240 239 239 241 244 247 249 251 252 253 254 255 255 255 254 254 254 254
211 210 209 209 209 210 213 216 219 221 222 223 223 223 224 225 226 227 227 226 225 225 226 226 227 228 228 229 229 228 227 226 226 226 227 226 225 225 223 221 219 218 218 219 220 221 224 225 224 225 226 224 223 223 222 223 225 225 225 225 227 228 230 232 234 236 236 235 237 241 242 242 243 243 245 248 249 250 251 252 252 252 252 252 252 252 253 253
213 213 211 210 210 212 215 217 218 220 222 224 224 225 226 226 226 227 228 226 225 226 227 227 228 228 228 229 230 230 230 229 228 228 228 227 226 225 225 223 221 220 219 219 220 221 224 225 225 226 228 228 227 226 227 228 229 230 229 229 231 232 233 235 236 237 238 238 239 241 243 244 244 245 246 248 249 249 249 250 251 251 252 252 253 254 255 256
214 215 216 215 214 215 216 218 220 222 224 225 226 227 228 228 227 227 228 227 226 226 226 227 227 228 229 230 231 232 231 231 231 230 229 229 228 227 226 225 223 222 221 221 221 222 224 225 224 225 227 229 229 228 228 228 229 230 230 231 232 234 235 236 237 238 239 241 240 240 242 244 245 245 245 245 247 248 248 249 250 251 252 252 253 255 257 259
216 217 219 220 221 221 221 220 221 224 226 226 227 228 228 229 229 229 230 230 228 227 227 227 227 228 230 231 232 233 233 233 233 232 231 231 230 229 228 228 226 224 223 222 223 224 225 226 225 226 226 227 228 228 227 227 227 227 227 227 228 229 231 233 235 235 236 238 239 237 238 240 241 243 243 243 245 248 249 250 250 251 253 254 255 257 259 261
217 219 220 221 223 226 227 226 224 224 225 225 226 227 228 229 230 231 234 235 234 232 231 231 231 230 231 231 231 233 233 233 234 234 233 232 232 231 231 230 230 228 226 225 224 225 227 227 227 227 228 228 229 229 228 228 228 227 227 227 226 227 229 231 231 231 233 237 237 237 237 238 239 242 244 245 246 249 251 252 253 254 256 257 257 258 259 260
216 219 221 221 221 222 224 226 226 226 226 226 226 226 227 228 229 230 233 235 236 236 236 235 235 234 234 234 233 233 233 234 235 236 236 236 235 235 234 233 232 231 230 228 227 227 227 228 228 228 229 229 229 229 230 229 229 229 228 228 228 229 230 232 233 234 236 239 239 239 240 241 241 243 246 248 249 251 254 256 258 259 259 258 258 259 259 260
214 216 218 219 220 221 222 223 225 228 229 229 228 227 227 227 228 229 230 232 234 235 236 236 236 236 236 236 236 235 234 234 235 235 235 236 236 237 238 237 235 234 233 231 230 229 229 229 230 230 231 231 230 231 232 232 232 231 229 228 229 231 232 235 237 237 239 241 241 241 243 244 244 244 246 249 251 253 255 257 259 260 260 260 260 260 262 263
213 214 215 216 217 219 221 221 222 225 227 227 229 229 229 228 229 229 230 231 232 232 233 234 235 237 238 237 236 235 235 235 236 235 234 233 232 233 235 236 235 235 235 233 232 231 230 231 231 232 234 233 232 233 234 235 236 234 231 230 232 234 235 237 238 238 239 241 242 243 244 245 245 244 245 247 249 251 254 256 258 259 260 261 261 262 265 266
Height
5659 5667 5673 5680 5686 5692 5698 5702 5706 5710 5716 5720 5724 5728 5731 5734 5737 5740 5743 5745 5747 5750 5752 5756 5759 5762 5765 5768 5771 5774 5776 5780 5782 5786 5791 5794 5796 5799 5803 5807 5811 5814 5817 5819 5821 5824 5827 5831 5835 5838 5841 5844 5847 5850 5853 5855 5857 5860 5862 5864 5866 5867 5869 5870 5872 5874 5875 5877 5878 5879 5881 5882 5883 5884 5884 5885 5886 5887 5888 5889 5889 5890 5891 5891 5891 5892 5892 5892
5656 5663 5670 5676 5682 5688 5694 5698 5703 5707 5712 5717 5721 5725 5728 5731 5734 5737 5740 5742 5745 5747 5750 5753 5757 5760 5763 5765 5769 5772 5775 5778 5779 5784 5788 5790 5792 5797 5800 5804 5808 5811 5814 5816 5818 5822 5825 5828 5833 5836 5840 5843 5846 5849 5851 5853 5856 5858 5861 5863 5864 5866 5867 5870 5872 5873 5874 5875 5877 5878 5880 5882 5883 5884 5884 5885 5886 5887 5888 5888 5889 5890 5891 5891 5892 5892 5892 5892
5653 5660 5666 5673 5679 5684 5690 5695 5700 5704 5709 5715 5719 5722 5726 5728 5731 5734 5737 5739 5742 5745 5747 5751 5754 5757 5760 5763 5766 5769 5772 5774 5777 5782 5784 5786 5790 5794 5797 5801 5804 5808 5811 5813 5816 5819 5822 5825 5830 5834 5837 5841 5844 5847 5850 5852 5855 5857 5860 5862 5862 5864 5867 5869 5871 5872 5873 5875 5876 5878 5880 5881 5882 5883 5884 5885 5886 5887 5888 5888 5889 5889 5890 5891 5892 5892 5892 5892
5650 5656 5663 5669 5675 5681 5687 5692 5697 5701 5707 5712 5716 5720 5723 5726 5729 5731 5734 5736 5739 5742 5745 5749 5752 5755 5758 5761 5764 5767 5770 5772 5776 5779 5780 5783 5787 5790 5795 5798 5801 5804 5808 5811 5813 5817 5820 5824 5828 5831 5835 5838 5842 5845 5848 5851 5853 5856 5857 5858 5860 5863 5865 5867 5869 5870 5872 5874 5876 5877 5879 5880 5882 5883 5884 5885 5885 5886 5887 5888 5889 5890 5890 5891 5892 5892 5892 5892
5647 5653 5659 5666 5672 5678 5683 5688 5694 5699 5704 5709 5714 5717 5721 5723 5726 5729 5731 5734 5737 5739 5743 5746 5750 5753 5756 5758 5761 5764 5767 5769 5774 5775 5776 5780 5783 5787 5792 5794 5798 5802 5805 5808 5811 5814 5818 5821 5824 5829 5833 5836 5840 5843 5846 5848 5851 5853 5854 5857 5860 5862 5864 5866 5867 5869 5871 5872 5874 5876 5877 5879 5881 5882 5883 5884 5885 5886 5887 5888 5889 5889 5889 5890 5891 5892 5892 5892
5644 5650 5656 5663 5668 5674 5680 5686 5691 5696 5701 5706 5711 5715 5718 5721 5723 5726 5729 5731 5734 5737 5740 5744 5747 5750 5753 5756 5759 5762 5764 5767 5771 5771 5773 5777 5780 5784 5788 5790 5795 5799 5803 5806 5808 5811 5815 5819 5822 5827 5831 5835 5838 5841 5845 5848 5850 5852 5853 5857 5859 5861 5863 5864 5866 5868 5869 5871 5873 5875 5876 5878 5879 5881 5882 5883 5884 5885 5886 5887 5888 5889 5889 5889 5890 5891 5891 5891
5641 5647 5653 5660 5665 5671 5677 5683 5688 5693 5699 5704 5708 5712 5715 5718 5721 5724 5726 5728 5731 5735 5738 5741 5745 5747 5750 5754 5757 5760 5763 5765 5767 5768 5771 5774 5777 5781 5783 5786 5791 5796 5800 5803 5805 5809 5813 5817 5821 5824 5829 5833 5837 5840 5843 5846 5848 5850 5852 5855 5857 5859 5861 5863 5864 5866 5868 5870 5872 5873 5875 5876 5878 5879 5880 5882 5883 5884 5885 5886 5887 5888 5889 5889 5890 5890 5891 5891
5638 5644 5650 5657 5662 5668 5674 5680 5685 5691 5696 5700 5705 5709 5712 5715 5718 5721 5724 5726 5729 5732 5735 5738 5742 5745 5748 5752 5754 5758 5759 5761 5763 5766 5769 5771 5774 5777 5779 5783 5788 5793 5798 5800 5802 5805 5809 5814 5818 5822 5826 5831 5835 5839 5841 5844 5846 5848 5851 5854 5856 5858 5859 5861 5863 5864 5866 5868 5870 5872 5873 5875 5876 5878 5879 5880 5882 5883 5884 5885 5886 5887 5888 5889 5889 5890 5891 5891
5635 5641 5647 5653 5659 5665 5671 5677 5682 5687 5693 5697 5702 5706 5709 5712 5715 5718 5721 5723 5726 5730 5732 5735 5739 5742 5746 5748 5751 5755 5754 5757 5762 5764 5766 5768 5771 5774 5776 5781 5785 5790 5794 5797 5799 5801 5806 5812 5817 5820 5824 5828 5833 5837 5839 5842 5843 5847 5850 5852 5854 5856 5858 5859 5861 5863 5865 5867 5868 5870 5872 5873 5875 5876 5878 5879 5880 5882 5882 5884 5885 5886 5887 5888 5888 5889 5890 5891
5632 5638 5644 5650 5656 5663 5668 5674 5679 5684 5690 5694 5699 5702 5706 5710 5713 5715 5718 5720 5723 5727 5729 5732 5735 5738 5743 5745 5749 5752 5751 5754 5759 5760 5763 5766 5769 5772 5774 5778 5783 5787 5791 5794 5796 5799 5803 5809 5814 5818 5822 5827 5831 5834 5836 5838 5841 5845 5848 5850 5853 5855 5856 5858 5860 5861 5863 5865 5867 5869 5870 5872 5873 5875 5876 5878 5879 5880 5881 5882 5884 5885 5886 5887 5887 5888 5889 5890
5629 5635 5641 5647 5654 5660 5665 5671 5676 5681 5686 5691 5695 5699 5703 5706 5709 5713 5715 5718 5721 5724 5727 5730 5733 5736 5739 5742 5746 5748 5747 5751 5755 5758 5761 5764 5767 5770 5772 5776 5780 5784 5787 5790 5793 5796 5800 5805 5812 5816 5819 5824 5828 5831 5833 5836 5839 5843 5845 5848 5851 5853 5854 5856 5858 5860 5862 5864 5866 5868 5869 5870 5872 5874 5875 5876 5878 5879 5880 5881 5883 5884 5885 5886 5887 5887 5888 5888
5627 5633 5639 5645 5651 5657 5663 5668 5673 5678 5683 5688 5692 5696 5700 5703 5706 5710 5712 5715 5718 5721 5724 5727 5730 5732 5735 5739 5743 5744 5745 5748 5752 5756 5759 5762 5765 5767 5770 5773 5777 5780 5784 5787 5789 5792 5796 5802 5808 5813 5816 5820 5824 5828 5830 5833 5837 5840 5842 5845 5848 5850 5851 5853 5856 5858 5860 5862 5864 5866 5868 5870 5871 5873 5874 5875 5877 5878 5879 5880 5881 5883 5884 5885 5886 5886 5887 5887
5624 5630 5636 5642 5649 5655 5660 5665 5670 5674 5680 5684 5689 5693 5697 5700 5703 5706 5709 5712 5715 5718 5721 5724 5726 5728 5732 5736 5740 5741 5743 5745 5749 5753 5757 5759 5762 5765 5768 5771 5774 5777 5780 5783 5785 5788 5793 5799 5805 5810 5814 5818 5821 5824 5828 5831 5834 5836 5839 5842 5845 5847 5849 5851 5853 5856 5858 5860 5862 5864 5866 5868 5869 5871 5872 5874 5875 5876 5878 5879 5880 5881 5883 5884 5884 5885 5886 5886
5622 5627 5634 5640 5646 5652 5657 5662 5666 5671 5676 5681 5685 5690 5693 5697 5700 5703 5706 5709 5712 5715 5718 5720 5723 5725 5729 5733 5736 5738 5740 5744 5747 5750 5753 5756 5759 5762 5765 5768 5770 5774 5777 5779 5782 5786 5791 5795 5802 5807 5812 5816 5819 5823 5826 5828 5831 5833 5836 5839 5841 5843 5845 5849 5851 5854 5856 5858 5860 5863 5865 5866 5867 5869 5871 5872 5873 5875 5876 5877 5879 5880 5881 5882 5883 5884 5885 5885
5619 5625 5631 5637 5643 5648 5653 5658 5663 5668 5673 5677 5682 5686 5690 5693 5696 5700 5703 5706 5709 5712 5715 5718 5720 5723 5726 5729 5732 5734 5738 5742 5745 5747 5750 5753 5756 5759 5762 5765 5767 5770 5773 5775 5778 5783 5788 5793 5799 5803 5809 5813 5817 5820 5823 5826 5828 5830 5833 5836 5838 5840 5844 5848 5850 5852 5854 5857 5859 5861 5863 5864 5866 5868 5869 5870 5872 5873 5874 5876 5877 5878 5879 5880 5881 5882 5883 5884
5617 5623 5629 5634 5640 5645 5650 5655 5660 5665 5669 5674 5678 5682 5686 5690 5693 5697 5700 5703 5706 5709 5712 5715 5717 5720 5723 5726 5729 5732 5737 5741 5743 5745 5748 5750 5753 5756 5758 5761 5763 5766 5769 5772 5775 5780 5785 5790 5796 5801 5806 5810 5814 5817 5820 5822 5824 5828 5831 5833 5836 5840 5844 5846 5848 5850 5853 5855 5857 5859 5861 5863 5865 5866 5867 5869 5870 5872 5873 5874 5876 5877 5878 5879 5880 5880 5881 5882
5615 5621 5626 5631 5637 5642 5647 5652 5657 5662 5666 5671 5675 5679 5682 5686 5689 5693 5696 5700 5703 5706 5709 5712 5715 5717 5719 5724 5728 5730 5735 5738 5740 5742 5744 5747 5750 5753 5755 5758 5761 5763 5765 5768 5772 5777 5782 5788 5794 5799 5803 5807 5811 5814 5816 5819 5821 5824 5826 5828 5834 5839 5842 5845 5847 5849 5852 5853 5855 5857 5859 5861 5863 5864 5866 5867 5868 5870 5871 5872 5874 5875 5876 5877 5878 5879 5879 5880
5613 5618 5623 5629 5634 5640 5645 5650 5655 5659 5663 5667 5671 5675 5678 5682 5686 5690 5693 5696 5699 5702 5705 5708 5711 5715 5719 5725 5727 5729 5733 5735 5736 5739 5741 5744 5747 5750 5753 5755 5757 5759 5762 5764 5769 5775 5780 5785 5791 5795 5799 5803 5807 5810 5814 5817 5820 5822 5823 5827 5834 5838 5841 5844 5846 5848 5850 5852 5853 5855 5857 5859 5861 5862 5864 5865 5866 5868 5869 5871 5872 5873 5875 5876 5876 5877 5877 5878
5611 5616 5621 5627 5632 5637 5642 5648 5652 5656 5660 5663 5667 5671 5674 5678 5682 5686 5690 5693 5697 5700 5704 5708 5712 5716 5721 5724 5724 5725 5728 5730 5732 5735 5738 5741 5744 5747 5749 5751 5753 5756 5758 5762 5767 5772 5778 5783 5786 5790 5796 5801 5805 5809 5813 5815 5818 5821 5826 5831 5836 5838 5841 5844 5846 5848 5849 5850 5851 5853 5856 5857 5858 5860 5862 5863 5864 5865 5867 5869 5870 5871 5872 5873 5874 5875 5876 5876
5609 5614 5620 5625 5630 5635 5640 5645 5650 5653 5657 5661 5665 5668 5672 5676 5680 5684 5689 5693 5697 5701 5705 5709 5713 5715 5718 5720 5719 5720 5723 5726 5729 5732 5735 5738 5741 5743 5745 5747 5749 5752 5755 5759 5764 5770 5775 5779 5783 5789 5796 5800 5804 5807 5809 5811 5816 5822 5827 5830 5834 5836 5838 5841 5843 5845 5845 5847 5849 5851 5853 5854 5856 5858 5859 5861 5862 5864 5865 5866 5868 5869 5870 5871 5872 5873 5874 5874
5607 5612 5618 5623 5627 5633 5638 5642 5647 5651 5656 5660 5664 5668 5673 5678 5682 5686 5690 5693 5696 5700 5703 5706 5709 5711 5714 5716 5716 5717 5721 5724 5726 5728 5731 5734 5737 5739 5742 5744 5746 5749 5753 5757 5761 5767 5772 5776 5783 5790 5794 5797 5800 5804 5808 5812 5816 5821 5824 5827 5829 5831 5832 5835 5838 5839 5841 5843 5845 5848 5850 5852 5854 5855 5856 5858 5861 5862 5863 5864 5865 5867 5868 5869 5870 5871 5872 5872
5605 5610 5616 5620 5625 5630 5635 5640 5644 5649 5653 5658 5662 5667 5672 5676 5682 5687 5690 5691 5693 5695 5698 5701 5703 5706 5710 5712 5712 5714 5719 5721 5723 5726 5728 5731 5734 5736 5739 5742 5744 5748 5751 5754 5758 5763 5768 5775 5782 5787 5790 5794 5799 5803 5807 5811 5815 5818 5820 5823 5825 5826 5828 5832 5834 5836 5838 5840 5842 5845 5848 5850 5852 5853 5854 5856 5859 5860 5861 5862 5863 5864 5865 5867 5868 5868 5869 5870
5603 5608 5613 5618 5623 5628 5633 5638 5643 5647 5652 5656 5661 5664 5669 5673 5678 5682 5684 5688 5691 5692 5693 5696 5698 5702 5705 5708 5709 5712 5716 5719 5721 5723 5726 5729 5731 5734 5736 5739 5742 5745 5748 5752 5756 5760 5766 5772 5778 5782 5788 5793 5797 5800 5803 5807 5811 5814 5817 5820 5822 5824 5827 5830 5832 5834 5837 5838 5841 5844 5846 5848 5849 5850 5852 5854 5856 5858 5859 5860 5861 5861 5863 5864 5865 5866 5867 5868
5601 5606 5611 5616 5620 5625 5631 5636 5640 5645 5650 5654 5658 5662 5666 5670 5674 5676 5679 5683 5687 5690 5692 5694 5697 5700 5702 5705 5707 5710 5714 5716 5718 5721 5724 5727 5729 5731 5734 5736 5739 5742 5746 5751 5755 5759 5764 5769 5774 5780 5785 5789 5792 5795 5799 5803 5807 5810 5814 5817 5819 5823 5826 5828 5830 5833 5835 5836 5838 5841 5842 5844 5846 5847 5850 5851 5853 5855 5856 5857 5858 5859 5860 5861 5862 5864 5865 5866
5599 5604 5609 5614 5618 5623 5628 5633 5638 5643 5647 5651 5655 5659 5663 5666 5669 5672 5676 5679 5682 5685 5688 5692 5695 5698 5701 5704 5706 5709 5712 5714 5716 5718 5721 5724 5726 5729 5731 5733 5736 5741 5746 5750 5754 5758 5762 5767 5773 5779 5782 5786 5789 5793 5796 5800 5804 5807 5811 5813 5816 5820 5823 5825 5828 5830 5831 5832 5835 5837 5839 5841 5843 5845 5847 5849 5851 5853 5853 5855 5856 5857 5858 5859 5860 5861 5862 5863
5597 5602 5607 5612 5616 5621 5625 5631 5636 5640 5644 5648 5652 5656 5659 5663 5666 5669 5673 5676 5677 5680 5683 5688 5691 5695 5699 5702 5703 5707 5709 5711 5714 5716 5719 5722 5724 5727 5730 5731 5735 5740 5744 5748 5751 5754 5760 5766 5772 5776 5780 5784 5787 5791 5794 5798 5801 5805 5808 5811 5814 5817 5819 5822 5825 5826 5827 5829 5832 5835 5836 5838 5840 5842 5844 5846 5848 5850 5851 5852 5853 5854 5856 5857 5858 5859 5860 5861
5596 5601 5605 5610 5615 5619 5624 5629 5633 5637 5642 5646 5649 5653 5656 5660 5663 5666 5669 5670 5672 5676 5680 5684 5688 5692 5696 5699 5701 5704 5707 5709 5712 5714 5716 5720 5723 5726 5728 5730 5734 5738 5742 5746 5749 5753 5760 5766 5770 5773 5777 5780 5784 5788 5792 5796 5798 5801 5805 5809 5811 5814 5816 5819 5821 5823 5824 5827 5830 5832 5833 5834 5836 5839 5842 5844 5845 5847 5848 5849 5851 5852 5853 5854 5855 5856 5857 5858
5594 5598 5603 5608 5613 5618 5623 5628 5632 5637 5640 5643 5646 5649 5653 5656 5659 5662 5663 5664 5667 5673 5677 5682 5686 5690 5694 5696 5699 5702 5706 5709 5711 5712 5715 5718 5720 5723 5726 5729 5732 5737 5741 5744 5747 5753 5759 5764 5767 5770 5774 5777 5780 5785 5789 5792 5794 5798 5803 5806 5808 5811 5813 5815 5817 5819 5821 5824 5826 5828 5830 5830 5833 5837 5839 5841 5842 5843 5845 5847 5848 5849 5851 5852 5853 5854 5854 5855
5591 5596 5601 5606 5610 5615 5621 5626 5631 5634 5636 5639 5642 5645 5649 5652 5655 5657 5658 5660 5665 5670 5675 5679 5683 5687 5691 5694 5697 5701 5704 5706 5708 5711 5714 5715 5717 5721 5724 5727 5730 5734 5739 5743 5747 5752 5757 5761 5764 5767 5770 5774 5779 5783 5787 5789 5792 5797 5800 5803 5805 5808 5810 5812 5814 5816 5818 5819 5821 5825 5827 5828 5830 5834 5836 5837 5839 5841 5842 5844 5845 5846 5848 5849 5850 5851 5851 5852
5588 5594 5598 5603 5608 5613 5618 5623 5625 5628 5633 5636 5639 5642 5645 5647 5649 5651 5652 5657 5663 5669 5673 5676 5680 5684 5688 5692 5695 5698 5701 5703 5707 5710 5711 5713 5716 5719 5722 5725 5728 5731 5735 5739 5743 5749 5754 5758 5761 5764 5767 5772 5777 5780 5783 5786 5789 5793 5796 5799 5802 5804 5806 5808 5810 5813 5814 5815 5818 5821 5824 5825 5827 5831 5833 5835 5837 5838 5839 5841 5843 5844 5845 5846 5847 5848 5849 5849
5586 5591 5596 5601 5606 5611 5616 5618 5620 5624 5628 5632 5635 5638 5640 5643 5645 5646 5649 5657 5663 5666 5670 5674 5678 5682 5686 5690 5693 5696 5699 5701 5704 5706 5708 5711 5714 5716 5719 5722 5725 5728 5731 5735 5739 5744 5750 5753 5757 5761 5765 5770 5774 5776 5779 5782 5785 5789 5791 5794 5797 5799 5802 5803 5805 5807 5808 5810 5814 5818 5821 5822 5823 5827 5831 5833 5834 5835 5836 5838 5840 5841 5842 5843 5844 5845 5846 5846
5583 5587 5593 5598 5603 5608 5612 5614 5617 5621 5624 5627 5630 5633 5635 5638 5639 5643 5650 5657 5659 5663 5668 5673 5677 5681 5685 5689 5691 5694 5696 5698 5701 5703 5706 5709 5712 5714 5717 5719 5722 5725 5728 5731 5735 5740 5745 5748 5753 5757 5761 5765 5768 5771 5774 5777 5780 5784 5787 5790 5793 5794 5796 5797 5799 5802 5803 5806 5810 5815 5817 5818 5820 5826 5829 5830 5831 5832 5833 5835 5836 5838 5839 5840 5841 5842 5843 5844
5579 5584 5589 5594 5600 5604 5607 5610 5614 5618 5620 5623 5625 5628 5632 5633 5636 5644 5651 5653 5657 5663 5668 5672 5676 5679 5682 5684 5686 5690 5693 5696 5699 5701 5704 5707 5709 5712 5715 5718 5722 5725 5727 5730 5733 5737 5740 5743 5747 5752 5756 5760 5763 5766 5769 5773 5777 5780 5782 5785 5787 5788 5790 5793 5795 5798 5800 5804 5808 5812 5814 5815 5819 5824 5825 5826 5828 5829 5830 5832 5833 5834 5836 5837 5838 5839 5840 5841
5575 5581 5586 5591 5596 5599 5602 5606 5610 5614 5617 5619 5621 5624 5626 5629 5638 5645 5647 5651 5657 5662 5666 5669 5672 5675 5677 5680 5683 5687 5690 5692 5695 5699 5701 5703 5705 5709 5712 5716 5720 5724 5727 5730 5733 5736 5738 5740 5744 5748 5752 5756 5759 5762 5766 5771 5775 5777 5779 5782 5784 5785 5789 5792 5794 5797 5800 5803 5807 5809 5810 5813 5817 5820 5822 5823 5825 5827 5827 5828 5829 5830 5831 5833 5834 5835 5836 5837
5571 5577 5582 5587 5591 5594 5598 5602 5606 5609 5612 5615 5618 5620 5623 5630 5638 5641 5644 5651 5655 5657 5662 5666 5669 5671 5673 5676 5680 5684 5687 5689 5692 5695 5698 5701 5704 5707 5710 5714 5718 5721 5724 5728 5732 5736 5739 5742 5745 5748 5751 5754 5756 5759 5764 5767 5769 5772 5775 5778 5780 5784 5788 5790 5792 5794 5798 5800 5801 5803 5807 5811 5814 5816 5818 5820 5822 5823 5824 5824 5826 5827 5828 5829 5830 5831 5832 5833
5566 5572 5577 5582 5587 5591 5595 5598 5602 5605 5607 5611 5614 5617 5624 5633 5637 5638 5643 5649 5651 5654 5659 5662 5663 5666 5668 5672 5677 5680 5683 5687 5690 5693 5696 5699 5702 5706 5710 5713 5716 5719 5722 5726 5729 5732 5737 5740 5744 5747 5749 5752 5755 5758 5761 5763 5765 5768 5770 5772 5777 5781 5784 5786 5788 5790 5793 5794 5795 5799 5804 5808 5810 5811 5813 5816 5818 5819 5820 5821 5822 5823 5824 5825 5826 5827 5828 5829
5563 5568 5573 5578 5582 5586 5591 5595 5598 5601 5603 5606 5610 5617 5626 5631 5633 5636 5641 5646 5648 5652 5656 5658 5660 5662 5665 5669 5673 5677 5680 5684 5686 5690 5693 5696 5699 5703 5708 5711 5715 5718 5721 5725 5728 5731 5734 5737 5741 5744 5746 5749 5752 5755 5758 5760 5762 5765 5767 5771 5776 5778 5779 5782 5783 5785 5788 5789 5791 5796 5801 5804 5806 5807 5809 5812 5814 5815 5816 5817 5818 5819 5821 5822 5823 5823 5824 5825
5559 5564 5569 5573 5578 5582 5586 5591 5594 5597 5600 5603 5609 5617 5623 5625 5628 5634 5638 5643 5646 5649 5652 5656 5659 5662 5664 5667 5671 5674 5677 5679 5682 5686 5690 5693 5696 5701 5706 5709 5713 5716 5718 5722 5726 5729 5732 5735 5738 5741 5743 5746 5748 5751 5753 5755 5759 5762 5765 5770 5773 5773 5776 5778 5779 5781 5784 5786 5788 5793 5797 5800 5802 5804 5807 5809 5809 5810 5812 5813 5815 5816 5817 5818 5819 5820 5820 5821
5555 5559 5564 5570 5574 5578 5582 5586 5589 5593 5596 5600 5607 5613 5617 5620 5626 5631 5635 5639 5643 5646 5650 5653 5657 5661 5663 5666 5669 5672 5674 5677 5680 5683 5686 5689 5693 5699 5703 5707 5710 5713 5715 5719 5721 5724 5728 5731 5733 5736 5739 5742 5743 5746 5749 5752 5756 5758 5762 5766 5767 5769 5772 5774 5776 5779 5781 5783 5785 5789 5793 5795 5799 5802 5803 5803 5804 5806 5807 5809 5811 5812 5813 5814 5815 5816 5817 5817
5552 5557 5561 5566 5570 5574 5578 5582 5585 5588 5591 5598 5606 5609 5612 5618 5622 5626 5631 5636 5639 5642 5646 5650 5655 5658 5660 5664 5667 5670 5673 5675 5678 5681 5684 5688 5691 5696 5700 5703 5707 5710 5712 5715 5717 5721 5723 5725 5728 5731 5733 5735 5738 5742 5746 5750 5753 5755 5758 5762 5764 5767 5768 5770 5772 5775 5777 5780 5782 5785 5788 5791 5795 5799 5798 5798 5800 5802 5804 5805 5806 5807 5808 5810 5811 5812 5813 5813
5548 5552 5557 5561 5565 5569 5573 5576 5579 5584 5591 5598 5602 5604 5608 5613 5617 5622 5627 5632 5636 5639 5643 5648 5651 5655 5657 5660 5663 5667 5670 5672 5676 5679 5682 5686 5689 5694 5698 5701 5704 5707 5708 5710 5713 5716 5719 5721 5723 5726 5728 5731 5735 5739 5743 5745 5748 5751 5754 5758 5761 5764 5765 5767 5769 5772 5775 5777 5778 5781 5783 5785 5791 5795 5795 5795 5797 5798 5799 5800 5801 5802 5804 5805 5806 5807 5808 5809
5544 5547 5553 5557 5561 5565 5569 5573 5578 5583 5589 5592 5595 5600 5605 5609 5612 5617 5623 5628 5632 5636 5640 5644 5648 5651 5654 5657 5660 5664 5667 5669 5673 5676 5679 5684 5688 5692 5697 5699 5701 5704 5705 5707 5710 5713 5715 5717 5719 5721 5725 5728 5731 5734 5737 5740 5743 5746 5748 5752 5756 5758 5760 5762 5764 5768 5771 5771 5773 5775 5776 5780 5786 5790 5791 5792 5793 5794 5795 5796 5797 5798 5799 5800 5801 5802 5803 5804
5539 5544 5549 5553 5557 5561 5564 5568 5574 5579 5582 5586 5592 5597 5600 5604 5608 5613 5619 5624 5628 5632 5636 5640 5644 5647 5650 5653 5657 5660 5664 5666 5669 5673 5677 5681 5685 5689 5693 5695 5698 5700 5701 5703 5705 5708 5711 5713 5715 5718 5721 5724 5726 5729 5732 5734 5737 5740 5743 5748 5751 5753 5756 5757 5759 5762 5763 5765 5768 5769 5769 5775 5783 5786 5788 5789 5789 5790 5791 5792 5793 5793 5794 5795 5796 5797 5798 5798
5535 5540 5544 5548 5552 5556 5559 5564 5569 5574 5578 5583 5588 5591 5594 5599 5604 5608 5614 5619 5624 5628 5632 5636 5640 5644 5647 5651 5654 5657 5660 5662 5665 5669 5673 5676 5680 5684 5688 5691 5693 5695 5697 5699 5702 5705 5706 5707 5710 5712 5715 5717 5719 5721 5724 5728 5732 5736 5741 5745 5747 5749 5752 5752 5754 5757 5757 5761 5765 5763 5766 5775 5781 5783 5785 5785 5785 5787 5787 5788 5789 5789 5789 5790 5791 5792 5792 5793
5530 5534 5538 5542 5546 5550 5555 5561 5566 5571 5574 5578 5582 5586 5590 5594 5599 5603 5609 5615 5620 5624 5628 5632 5637 5641 5644 5647 5650 5653 5656 5658 5661 5664 5667 5671 5675 5679 5682 5686 5688 5691 5694 5696 5699 5701 5702 5703 5705 5707 5708 5710 5713 5717 5722 5728 5732 5735 5737 5740 5743 5745 5747 5749 5751 5751 5753 5759 5761 5760 5765 5773 5777 5779 5780 5780 5781 5782 5782 5783 5783 5783 5784 5784 5785 5786 5787 5788
5525 5528 5531 5535 5541 5547 5553 5558 5562 5565 5569 5573 5577 5581 5585 5589 5594 5599 5603 5609 5615 5620 5624 5628 5632 5636 5639 5642 5646 5649 5652 5655 5657 5660 5663 5666 5670 5674 5677 5681 5684 5687 5689 5692 5694 5696 5696 5698 5701 5703 5706 5709 5714 5719 5725 5729 5730 5731 5735 5739 5741 5742 5744 5746 5745 5746 5751 5756 5756 5759 5765 5769 5771 5774 5775 5774 5775 5776 5777 5777 5777 5778 5778 5779 5780 5781 5782 5784
5521 5524 5528 5531 5537 5544 5549 5553 5558 5562 5566 5570 5574 5577 5581 5585 5589 5593 5597 5602 5609 5614 5618 5623 5627 5631 5635 5639 5642 5645 5649 5651 5653 5656 5660 5662 5665 5669 5672 5675 5679 5682 5685 5687 5688 5689 5690 5692 5696 5700 5704 5707 5711 5716 5720 5722 5724 5727 5732 5734 5736 5738 5739 5739 5740 5744 5750 5750 5750 5758 5763 5763 5766 5768 5768 5769 5769 5769 5771 5771 5772 5772 5773 5774 5775 5776 5777 5778
5518 5522 5527 5530 5535 5541 5545 5551 5556 5560 5562 5567 5570 5573 5577 5580 5584 5589 5593 5598 5604 5608 5612 5616 5621 5626 5631 5635 5638 5641 5644 5646 5648 5652 5655 5658 5661 5664 5667 5670 5673 5676 5680 5682 5683 5685 5686 5689 5693 5697 5700 5703 5706 5709 5712 5714 5717 5721 5723 5725 5728 5730 5731 5732 5735 5741 5744 5741 5746 5755 5756 5756 5760 5760 5761 5764 5764 5763 5764 5766 5766 5767 5768 5769 5770 5771 5771 5771
5515 5519 5524 5529 5534 5540 5546 5551 5553 5554 5555 5560 5563 5567 5571 5575 5581 5587 5591 5595 5600 5604 5609 5613 5618 5623 5627 5630 5633 5635 5638 5641 5645 5648 5652 5655 5657 5659 5662 5665 5667 5671 5674 5676 5678 5681 5682 5685 5690 5693 5695 5698 5700 5703 5706 5709 5711 5713 5716 5718 5721 5722 5724 5727 5730 5735 5736 5735 5742 5749 5747 5750 5755 5755 5756 5759 5759 5759 5760 5760 5761 5762 5763 5764 5764 5764 5764 5764
5511 5515 5520 5526 5531 5537 5542 5545 5547 5548 5551 5554 5557 5561 5567 5571 5576 5582 5586 5590 5595 5600 5605 5610 5615 5620 5623 5625 5628 5630 5634 5639 5642 5645 5649 5651 5653 5656 5658 5660 5663 5667 5669 5671 5673 5675 5677 5681 5684 5688 5690 5691 5694 5698 5700 5702 5705 5708 5710 5712 5715 5717 5720 5722 5726 5731 5731 5732 5739 5742 5740 5746 5752 5753 5753 5754 5755 5756 5755 5754 5755 5756 5757 5758 5757 5756 5756 5756
5507 5511 5516 5522 5527 5531 5534 5537 5541 5544 5546 5549 5554 5559 5563 5567 5572 5577 5581 5585 5590 5595 5600 5606 5611 5615 5617 5620 5623 5627 5632 5636 5637 5640 5643 5645 5648 5652 5653 5655 5659 5661 5662 5665 5667 5669 5673 5675 5679 5683 5683 5684 5690 5693 5694 5696 5699 5699 5701 5706 5710 5713 5716 5719 5724 5727 5727 5729 5735 5735 5736 5744 5750 5750 5749 5749 5750 5751 5749 5748 5749 5749 5749 5749 5749 5748 5749 5751
5503 5507 5512 5516 5521 5525 5529 5532 5535 5537 5540 5546 5553 5557 5561 5565 5569 5572 5576 5580 5584 5589 5594 5599 5603 5607 5610 5613 5619 5624 5628 5630 5631 5634 5636 5638 5640 5643 5645 5648 5652 5654 5656 5659 5661 5664 5667 5670 5674 5676 5676 5680 5685 5687 5689 5691 5688 5687 5695 5705 5708 5711 5715 5716 5719 5721 5723 5726 5728 5729 5734 5741 5743 5742 5743 5743 5744 5744 5743 5743 5742 5742 5741 5740 5741 5742 5743 5745